User: anonymous   Login
Location: Caltech
(34.1382°N, 118.1253°W)
Time: 16:35:27
(UTC-08:00)
Language:

IRS-1A Rocket - Orbit

View from above orbital plane
View from above orbital plane
View from above satellite
View from above satellite

Ground track
Ground track

The orbit data is extracted from the following two-line orbital elements,

1 18961U 88021B   17345.88451314 -.00000239  00000-0 -12767-3 0  9990
2 18961  99.3341 357.7374 0055043  99.6625 323.6238 14.00729898520299
Epoch (UTC): 11 December 2017 21:13:41
Eccentricity: 0.0055043
inclination: 99.3341°
perigee height: 851 km
apogee height: 931 km
right ascension of ascending node: 357.7374°
argument of perigee: 99.6625°
revolutions per day: 14.00729898
mean anomaly at epoch: 323.6238°
orbit number at epoch: 52029

The dashed part of the orbit path shows where the satellite is in the earth's shadow,  

DLR